ARIANE 5 DEB (SYLDA), 43635

Orbit data source: Space-Track

ARIANE 5 DEB (SYLDA), 43635 is space debris in LEO originally from a launch on Tue, 25 Sep 2018 UTC launched from the French Guiana (FRGUI). Debris objects in space refer to the collection of defunct objects orbiting the Earth. Examples of debris include non-operational satellites, rocket bodies, and fragments generated from explosions, collisions, or faulty payload assembly.

Not visible in the next 10 days
ARIANE 5 DEB (SYLDA) details
Identifier
43635, 2018-074D
Orbit
LEO
Last TLE update5 days ago
Origin
Flag of FRArianespace (FR)
ManufacturerADS/Bremen
MissionSpacecraft
Bus & MotorSYLDA 5, Unknown motor
Mass440 kg wet, 440 kg dry
Launch date (UTC)
2018-09-25 (6 years ago)
Launch vehicleUnknown
Launch site
French Guiana (FRGUI)
Object type
Payload
Rocket body
Debris
Shape & HBRCyl, 5.5 m
Radar Cross Section27.391 m², Large (>1 m²)

Expand to show TLE details & history

TLE from 5 days ago
0 ARIANE 5 DEB (SYLDA)
1 43635U 18074D   24356.22750071  .07451130 -20805-4  53576-2 0  9994
2 43635   6.1947 224.4420 1064540  37.5189  93.6934 13.87638991 78443
Epoch: 2024-12-21T05:27Z
Definitive object data (Epoch: 2024-12-21T05:27:36.061Z)
Latitude3.72472°
Longitude-164.37461°
Altitude1,064.763 km
Speed7.257 km/s
True Right ascension00h 31m 13s
True Declination3° 42' 12"
Sunlit
Object was in daylight at TLE epoch
Visualization TLE readout
Latitude-1.54229°
Longitude-149.14695°
Altitude620.018 km
Speed7.572 km/s
Apparent Right ascension01h 07m 51s
Apparent Declination-19° 50' 38"
Sunlit
Object is in daylight
Visualization observer readout
Local Sidereal Time12:33:06
Azimuth337.098° NNW
Elevation-68.589°
Doppler factor1
Orbital elements
Apogee altitude1,722.3 km
Perigee altitude163.584 km
Semi-major axis7,321.079 km
Eccentricity0.106454
Inclination6.1947°
RAAN224.442°
Arg. of periapsis37.5189°
True anomaly105.67549°
Mean anomaly93.6934°
Eccentric anomaly99.70547°
Mean motion3.46482 °/min
BSTAR0.0053576
Orbital period103.9 mins
Loading maneuver chart data...
Loading historical data...
Loading historical data...
Loading historical data...
Loading historical data...
Loading historical data...
Loading historical data...
Loading historical data...
Other satellites on launch #74 in the year 2018 (2018-09-25 UTC)

ARIANE 5 DEB (SYLDA) Visibility forecast

Observer location: undefined°, undefined

ARIANE 5 DEB (SYLDA) is not visible in the next 10 days
Span
Click to sort rows by Start time (UTC) header in descending order
Start Az.
Max El. time (UTC)
Max El. Az.
Max El.
End time (UTC)
End Az.
|